Flag Weather past 2 weeks in Québec, Quebec, Canada

Now
37 °F

Passing clouds.


Feels Like: 27 °F
Forecast: 31 / 35 °F
Wind: 22 mph from Southwest

Location: Quebec Weather Station

Current Time: Nov 26, 2014 at 12:31:07 AM

Latest Report: Nov 26, 2014 at 12:00 AM


Visibility: 15 mi

Pressure: 29.96 "Hg

Humidity: 70%

Dew point: 28 °F

Location of QuébecLocation

Historic Weather in Québec — Graph

°F

Québec temperature yesterday

Maximum temperature yesterday: 52 °F (at 12:00 AM)
Minimum temperature yesterday: 39 °F (at 6:00 PM)
Average temperature yesterday: 43 °F

Past Weeks' High & Low Weather Summary

 TemperatureHumidityPressure
High54 °F (Nov 24, 11:00 PM)100% (Nov 12, 2:00 PM)30.27 "Hg (Nov 12, 2:00 PM)
Low5 °F (Nov 22, 4:00 AM)47% (Nov 14, 3:00 PM)29.29 "Hg (Nov 18, 6:00 AM)
Average29 °F79%29.88 "Hg
* Reported Nov 10 11:00 PM — Nov 25 11:00 PM, Québec, Weather by CustomWeather, © 2014

Note: Actual official high and low records may vary slightly from our data, if they occured in-between our weather recording intervals... More about our weather records

Advertising

Québec weather history for previous 24 hours

 ConditionsComfort  
Time TempWeatherWind HumidityBarometerVisibility
11:00 PM
Nov 25
39 °FSprinkles. Partly cloudy.21 mph70%29.92 "Hg15 mi
10:00 PM39 °FPartly cloudy.24 mph70%29.87 "Hg15 mi
9:00 PM39 °FMostly cloudy.30 mph70%29.85 "Hg15 mi
8:00 PM39 °FPartly cloudy.23 mph75%29.84 "Hg15 mi
7:54 PM39 °FSprinkles. Mostly cloudy.26 mph75%29.84 "Hg15 mi
7:00 PM39 °FSprinkles. Overcast.15 mph87%29.83 "Hg15 mi
6:00 PM39 °FSprinkles. Mostly cloudy.18 mph87%29.80 "Hg15 mi
5:46 PM41 °FSprinkles. Mostly cloudy.24 mph76%29.80 "Hg15 mi
5:00 PM43 °FOvercast.21 mph66%29.80 "Hg15 mi
4:00 PM41 °FOvercast.18 mph70%29.79 "Hg25 mi
3:00 PM43 °FMostly cloudy.20 mph61%29.77 "Hg30 mi
2:00 PM43 °FOvercast.23 mph61%29.74 "Hg30 mi
1:00 PM43 °FOvercast.25 mph61%29.73 "Hg30 mi
12:00 PM41 °FOvercast.32 mph66%29.71 "Hg30 mi
11:00 AM43 °FOvercast.29 mph66%29.70 "Hg30 mi
10:00 AM43 °FOvercast.28 mph66%29.69 "Hg30 mi
9:00 AM43 °FOvercast.25 mph66%29.66 "Hg30 mi
8:00 AM43 °FOvercast.23 mph66%29.64 "Hg30 mi
7:00 AM43 °FOvercast.24 mph71%29.62 "Hg30 mi
6:00 AM43 °FPassing clouds.23 mph66%29.59 "Hg15 mi
5:00 AM43 °FPassing clouds.26 mph66%29.56 "Hg15 mi
4:00 AM43 °FClear.29 mph71%29.53 "Hg15 mi
3:00 AM46 °FClear.36 mph66%29.47 "Hg15 mi
2:00 AM48 °FClear.32 mph58%29.43 "Hg15 mi
1:00 AM50 °FPassing clouds.22 mph62%29.39 "Hg15 mi
12:00 AM52 °FPassing clouds.26 mph67%29.36 "Hg15 mi
Weather by CustomWeather, © 2014

See weather overviewHow to use our weather pages